EW4792 Weather Reports


Display with metric or nautical units.
time (UTC)temp
F
wind
direction
speed
MPH
gust
MPH
rain 1hr
in
rain 24hr
in
rain mn
in
humidity
%
barometer
mb
20260506002627 79 168 0.0 1.0 0.00 0.00 0.00 82 1007.6
20260506002122 79 168 1.0 1.0 0.00 0.00 0.00 82 1007.5
20260506001724 79 168 0.0 4.0 0.00 0.00 0.00 82 1007.5
20260506001158 79 168 1.0 4.0 0.00 0.00 0.00 82 1007.5
20260506000652 80 168 2.0 5.0 0.00 0.00 0.00 82 1007.5
20260506000151 80 167 3.0 6.0 0.00 0.00 0.00 81 1007.4
20260505235634 80 168 5.0 6.0 0.00 0.00 0.00 81 1007.5
20260505235125 80 176 4.0 7.0 0.00 0.00 0.00 81 1007.4
20260505234623 80 172 5.0 9.0 0.00 0.00 0.00 81 1007.4
20260505234122 81 162 7.0 11.0 0.00 0.00 0.00 80 1007.2
20260505233644 81 166 9.0 11.0 0.00 0.00 0.00 80 1007.3
20260505233142 80 178 8.0 9.0 0.00 0.00 0.00 80 1007.3
20260505232641 81 172 8.0 9.0 0.00 0.00 0.00 80 1007.2
20260505232137 80 165 5.0 7.0 0.00 0.00 0.00 80 1007.2
20260505231650 81 176 4.0 8.0 0.00 0.00 0.00 80 1007.2
20260505231147 81 182 5.0 11.0 0.00 0.00 0.00 80 1007.1
20260505230649 81 178 8.0 12.0 0.00 0.00 0.00 80 1007.2
20260505230215 81 174 8.0 12.0 0.00 0.00 0.00 80 1006.9
20260505225706 81 162 11.0 13.0 0.00 0.00 0.00 80 1007.0
20260505225203 80 172 10.0 13.0 0.00 0.00 0.00 80 1006.8
20260505224658 81 179 9.0 14.0 0.00 0.00 0.00 80 1007.1
20260505224138 80 149 12.0 14.0 0.00 0.00 0.00 80 1006.9
20260505223617 80 159 11.0 12.0 0.00 0.00 0.00 80 1007.1
20260505223138 81 163 8.0 11.0 0.00 0.00 0.00 80 1007.2
20260505222633 81 187 8.0 12.0 0.00 0.00 0.00 80 1007.1
20260505222148 81 174 10.0 14.0 0.00 0.00 0.00 80 1007.2
20260505221659 80 181 11.0 14.0 0.00 0.00 0.00 80 1006.9
20260505221221 80 185 11.0 13.0 0.00 0.00 0.00 80 1007.0
20260505220119 80 179 7.0 13.0 0.00 0.00 0.00 81 1007.2
20260505215614 80 177 9.0 13.0 0.00 0.00 0.00 81 1007.2
20260505215117 80 174 11.0 13.0 0.00 0.00 0.00 81 1007.2
20260505214613 80 173 11.0 13.0 0.00 0.00 0.00 81 1007.3
20260505214115 79 179 9.0 11.0 0.00 0.00 0.00 82 1007.3
20260505213630 79 175 6.0 9.0 0.00 0.00 0.00 82 1007.7
20260505213144 79 182 7.0 11.0 0.00 0.00 0.00 82 1007.8
20260505212208 79 153 8.0 10.0 0.00 0.00 0.00 82 1007.8
20260505211706 79 193 6.0 12.0 0.00 0.00 0.00 82 1007.8
20260505211203 79 163 10.0 12.0 0.00 0.00 0.00 82 1007.9
20260505210655 79 155 10.0 14.0 0.00 0.00 0.00 82 1007.9
20260505210148 79 147 11.0 14.0 0.00 0.00 0.00 82 1008.0
20260505205642 79 166 10.0 13.0 0.00 0.00 0.00 83 1008.0
20260505204706 79 200 5.0 9.0 0.00 0.00 0.00 83 1008.1
20260505204204 79 179 7.0 11.0 0.00 0.00 0.00 82 1008.2
20260505203641 79 160 9.0 11.0 0.00 0.00 0.00 82 1008.3
20260505202711 79 175 6.0 14.0 0.00 0.00 0.00 83 1008.7
20260505202210 79 199 8.0 14.0 0.00 0.00 0.00 83 1008.6
20260505201702 79 202 7.0 11.0 0.00 0.00 0.00 83 1008.7
20260505201154 78 202 8.0 12.0 0.00 0.00 0.00 83 1008.8
20260505200649 78 172 11.0 12.0 0.00 0.00 0.00 83 1008.8
20260505200139 78 186 9.0 12.0 0.00 0.00 0.00 83 1008.8
20260505195612 78 188 10.0 12.0 0.00 0.00 0.00 84 1008.8
20260505195126 78 175 7.0 12.0 0.00 0.00 0.00 84 1008.9
20260505194624 78 203 8.0 13.0 0.00 0.00 0.00 84 1009.0
20260505194127 78 175 8.0 11.0 0.00 0.00 0.00 84 1009.1
20260505193625 78 197 9.0 12.0 0.00 0.00 0.00 84 1009.0
20260505193125 78 169 6.0 12.0 0.00 0.00 0.00 84 1009.1
20260505192627 78 216 8.0 12.0 0.00 0.00 0.00 84 1009.3
20260505192142 77 215 8.0 12.0 0.00 0.00 0.00 85 1009.3
20260505191210 77 193 10.0 15.0 0.00 0.00 0.00 85 1009.2
20260505190621 77 182 7.0 10.0 0.00 0.00 0.00 86 1009.2
20260505190144 77 178 6.0 14.0 0.00 0.00 0.00 86 1009.3
20260505185657 77 206 6.0 14.0 0.00 0.00 0.00 86 1009.5
20260505185210 76 189 7.0 12.0 0.00 0.00 0.00 86 1009.7
20260505184707 76 163 9.0 12.0 0.00 0.00 0.00 86 1009.7
20260505184115 76 203 7.0 10.0 0.00 0.00 0.00 86 1009.9
20260505183717 76 172 8.0 10.0 0.00 0.00 0.00 86 1009.9
20260505183133 76 181 7.0 11.0 0.00 0.00 0.00 87 1010.0
20260505182634 76 207 9.0 11.0 0.00 0.00 0.00 86 1010.0
20260505182148 76 212 5.0 10.0 0.00 0.00 0.00 86 1010.0
20260505181642 76 222 7.0 12.0 0.00 0.00 0.00 86 1010.2
20260505181122 76 212 10.0 12.0 0.00 0.00 0.00 86 1010.1
20260505180614 76 198 8.0 13.0 0.00 0.00 0.00 87 1010.1
20260505180125 76 213 9.0 13.0 0.00 0.00 0.00 87 1010.1
20260505175645 76 238 6.0 9.0 0.00 0.00 0.00 87 1010.2
20260505174706 75 226 8.0 11.0 0.00 0.00 0.00 87 1010.2
20260505174204 75 247 8.0 11.0 0.00 0.00 0.00 87 1010.2
20260505173659 75 233 7.0 14.0 0.00 0.00 0.00 88 1010.2
20260505172708 75 213 5.0 11.0 0.00 0.00 0.00 88 1010.3
20260505172119 74 213 8.0 13.0 0.00 0.00 0.00 88 1010.4
20260505171725 74 236 9.0 13.0 0.00 0.00 0.00 89 1010.3
20260505171204 74 239 5.0 8.0 0.00 0.00 0.00 89 1010.3
20260505170701 74 204 3.0 8.0 0.00 0.00 0.00 89 1010.5
20260505170131 74 225 7.0 13.0 0.00 0.00 0.00 89 1010.5
20260505165706 74 230 5.0 13.0 0.00 0.00 0.00 89 1010.6
20260505165200 74 224 7.0 13.0 0.00 0.00 0.00 89 1010.6
20260505164657 73 207 10.0 13.0 0.00 0.00 0.00 89 1010.6
20260505164152 73 230 8.0 11.0 0.00 0.00 0.00 89 1010.5
20260505163647 73 206 7.0 11.0 0.00 0.00 0.00 90 1010.5
20260505163121 73 205 8.0 14.0 0.00 0.00 0.00 90 1010.5
20260505162629 73 222 11.0 14.0 0.00 0.00 0.00 90 1010.4
20260505162127 73 224 9.0 14.0 0.00 0.00 0.00 90 1010.4
20260505161624 73 201 8.0 12.0 0.00 0.00 0.00 90 1010.3
20260505161127 73 222 8.0 13.0 0.00 0.00 0.00 90 1010.3
20260505160622 72 206 8.0 13.0 0.00 0.00 0.00 90 1010.2
20260505160120 72 229 8.0 15.0 0.00 0.00 0.00 90 1010.3
20260505153151 72 214 9.0 11.0 0.00 0.00 0.00 90 1010.3
20260505152645 71 199 8.0 12.0 0.00 0.00 0.00 91 1010.3
20260505152125 71 214 8.0 12.0 0.00 0.00 0.00 91 1010.3
20260505151623 71 206 9.0 12.0 0.00 0.00 0.00 90 1010.2
20260505151204 71 223 8.0 9.0 0.00 0.00 0.00 90 1010.3
20260505150613 71 223 5.0 8.0 0.00 0.00 0.00 91 1010.3
20260505150155 71 213 6.0 10.0 0.00 0.00 0.00 91 1010.3
20260505140159 71 218 10.0 18.0 0.00 0.00 0.00 91 1010.3
20260505130157 71 221 14.0 19.0 0.00 0.00 0.00 91 1009.6
20260505124656 71 205 12.0 15.0 0.00 0.00 0.00 90 1009.6
20260505124133 71 203 13.0 15.0 0.00 0.00 0.00 90 1009.5
20260505123653 71 197 10.0 14.0 0.00 0.00 0.00 90 1009.5
20260505123145 71 222 11.0 16.0 0.00 0.00 0.00 90 1009.4
20260505122657 71 210 10.0 16.0 0.00 0.00 0.00 90 1009.3
20260505122148 71 213 11.0 16.0 0.00 0.00 0.00 90 1009.3
20260505121644 71 216 10.0 12.0 0.00 0.00 0.00 90 1009.1
20260505121141 71 205 10.0 14.0 0.00 0.00 0.00 90 1009.1
20260505120624 71 215 10.0 16.0 0.00 0.00 0.00 90 1009.0
20260505120122 71 228 11.0 16.0 0.00 0.00 0.00 90 1009.1
20260505115644 71 211 11.0 16.0 0.00 0.00 0.00 90 1009.1
20260505115208 71 213 11.0 16.0 0.00 0.00 0.00 90 1009.1
20260505114706 71 205 12.0 16.0 0.00 0.00 0.00 90 1009.0
20260505114143 71 219 6.0 11.0 0.00 0.00 0.00 90 1009.0
20260505113639 71 201 8.0 12.0 0.00 0.00 0.00 90 1009.0
20260505113134 71 197 9.0 14.0 0.00 0.00 0.00 90 1009.0
20260505112701 71 220 9.0 14.0 0.00 0.00 0.00 90 1009.0
20260505111615 71 219 12.0 18.0 0.00 0.00 0.00 90 1009.0
20260505111112 71 220 10.0 14.0 0.00 0.00 0.00 90 1008.8
20260505110717 71 207 12.0 14.0 0.00 0.00 0.00 90 1008.8
20260505102145 71 211 11.0 16.0 0.00 0.00 0.00 90 1009.0
20260505101642 71 211 12.0 16.0 0.00 0.00 0.00 90 1009.0
20260505101147 71 198 12.0 20.0 0.00 0.00 0.00 90 1009.1
20260505100210 71 217 11.0 20.0 0.00 0.00 0.00 90 1009.4
20260505095705 71 212 13.0 20.0 0.00 0.00 0.00 90 1009.2
20260505095157 71 212 12.0 16.0 0.00 0.00 0.00 90 1009.2
20260505094653 71 197 10.0 19.0 0.00 0.00 0.00 90 1009.1
20260505094153 71 209 13.0 19.0 0.00 0.00 0.00 90 1009.2
20260505093649 71 205 11.0 19.0 0.00 0.00 0.00 90 1009.4
20260505093145 71 219 13.0 19.0 0.00 0.00 0.00 90 1009.4
20260505092211 71 193 13.0 21.0 0.00 0.00 0.00 89 1009.3
20260505091717 71 193 10.0 18.0 0.00 0.00 0.00 89 1009.2
20260505091154 71 202 11.0 18.0 0.00 0.00 0.00 89 1009.2
20260505090644 71 206 10.0 15.0 0.00 0.00 0.00 89 1009.4
20260505090141 71 201 11.0 15.0 0.00 0.00 0.00 89 1009.7
20260505085643 71 204 10.0 15.0 0.00 0.00 0.00 89 1009.4
20260505085141 71 199 10.0 19.0 0.00 0.00 0.00 89 1009.4
20260505084646 71 203 10.0 21.0 0.00 0.00 0.00 89 1009.5
20260505084149 71 211 12.0 21.0 0.00 0.00 0.00 89 1009.7
20260505083648 71 199 10.0 13.0 0.00 0.00 0.00 89 1009.7
20260505083144 71 197 11.0 13.0 0.00 0.00 0.00 89 1009.7
20260505082640 71 188 9.0 14.0 0.00 0.00 0.00 89 1009.6
20260505082133 71 202 9.0 13.0 0.00 0.00 0.00 89 1010.0
20260505081632 71 201 9.0 18.0 0.00 0.00 0.00 89 1009.8
20260505081113 71 207 11.0 18.0 0.00 0.00 0.00 89 1009.8
20260505080613 71 209 10.0 14.0 0.00 0.00 0.00 89 1010.0
20260505080124 71 195 9.0 16.0 0.00 0.00 0.00 89 1010.1
20260505075620 71 205 13.0 16.0 0.00 0.00 0.00 89 1010.0
20260505075144 71 188 11.0 16.0 0.00 0.00 0.00 89 1010.1
20260505074624 71 202 10.0 15.0 0.00 0.00 0.00 88 1010.1
20260505074123 71 201 13.0 18.0 0.00 0.00 0.00 88 1010.2
20260505073643 71 201 9.0 18.0 0.00 0.00 0.00 88 1010.3
20260505073143 71 180 11.0 18.0 0.00 0.00 0.00 88 1010.4
20260505072656 71 191 12.0 18.0 0.00 0.00 0.00 88 1010.5
20260505072149 71 194 12.0 19.0 0.00 0.00 0.00 88 1010.5
20260505071645 71 193 13.0 21.0 0.00 0.00 0.00 88 1010.7
20260505071141 71 217 14.0 23.0 0.00 0.00 0.00 88 1010.6
20260505070626 71 188 12.0 20.0 0.00 0.00 0.00 88 1010.9
20260505070119 71 192 12.0 15.0 0.00 0.00 0.00 88 1010.9
20260505065614 71 197 11.0 16.0 0.00 0.00 0.00 88 1011.1
20260505065127 71 191 10.0 20.0 0.00 0.00 0.00 88 1011.0
20260505064641 71 180 12.0 20.0 0.00 0.00 0.00 88 1011.1
20260505064113 71 200 10.0 19.0 0.00 0.00 0.00 88 1011.1
20260505063626 71 182 11.0 16.0 0.00 0.00 0.00 88 1011.2
20260505063118 71 178 11.0 16.0 0.00 0.00 0.00 88 1011.1
20260505062615 71 216 12.0 16.0 0.00 0.00 0.00 88 1011.2
20260505062128 71 190 10.0 14.0 0.00 0.00 0.00 88 1011.2
20260505061622 71 201 9.0 16.0 0.00 0.00 0.00 87 1011.2
20260505061114 71 197 9.0 15.0 0.00 0.00 0.00 87 1011.3
20260505060627 71 188 9.0 14.0 0.00 0.00 0.00 87 1011.4
20260505060116 71 184 11.0 15.0 0.00 0.00 0.00 87 1011.2
20260505055612 71 180 11.0 16.0 0.00 0.00 0.00 87 1011.2
20260505055124 71 187 11.0 18.0 0.00 0.00 0.00 87 1011.2
20260505054617 71 180 13.0 19.0 0.00 0.00 0.00 87 1011.1
20260505054112 71 197 13.0 19.0 0.00 0.00 0.00 87 1011.3
20260505053625 72 193 12.0 19.0 0.00 0.00 0.00 87 1011.3
20260505053118 72 191 12.0 19.0 0.00 0.00 0.00 87 1011.3
20260505052612 72 180 12.0 20.0 0.00 0.00 0.00 87 1011.3
20260505052125 72 192 14.0 20.0 0.00 0.00 0.00 87 1011.2
20260505051618 72 172 10.0 18.0 0.00 0.00 0.00 87 1011.3
20260505051112 72 172 10.0 14.0 0.00 0.00 0.00 87 1011.2
20260505050627 72 171 10.0 14.0 0.00 0.00 0.00 86 1011.2
20260505050121 72 174 11.0 15.0 0.00 0.00 0.00 86 1011.1
20260505041700 73 150 12.0 15.0 0.00 0.00 0.00 85 1011.2
20260505041157 73 178 12.0 19.0 0.00 0.00 0.00 85 1011.2
20260505040635 73 152 13.0 19.0 0.00 0.00 0.00 85 1011.2
20260505040133 73 158 13.0 18.0 0.00 0.00 0.00 84 1011.2
20260505035626 74 161 11.0 16.0 0.00 0.00 0.00 84 1011.3
20260505035205 74 149 11.0 16.0 0.00 0.00 0.00 83 1011.0
20260505034618 74 160 11.0 16.0 0.00 0.00 0.00 83 1011.0
20260505034119 74 159 11.0 16.0 0.00 0.00 0.00 83 1011.1
20260505033617 74 175 10.0 16.0 0.00 0.00 0.00 83 1011.2
20260505033114 74 164 10.0 12.0 0.00 0.00 0.00 83 1011.2
20260505032711 74 165 10.0 15.0 0.00 0.00 0.00 82 1011.2
20260505032151 74 162 11.0 15.0 0.00 0.00 0.00 82 1011.1
20260505031702 75 169 11.0 15.0 0.00 0.00 0.00 82 1010.9
20260505030710 75 173 9.0 14.0 0.00 0.00 0.00 82 1011.1
20260505030147 75 158 11.0 14.0 0.00 0.00 0.00 82 1011.1
20260505025619 75 176 10.0 14.0 0.00 0.00 0.00 81 1011.1
20260505025222 75 174 10.0 14.0 0.00 0.00 0.00 81 1011.1
20260505024656 75 172 9.0 13.0 0.00 0.00 0.00 81 1011.2
20260505023705 75 179 9.0 12.0 0.00 0.00 0.00 81 1011.0
20260505023206 75 158 9.0 12.0 0.00 0.00 0.00 81 1011.0
20260505022705 75 171 9.0 12.0 0.00 0.00 0.00 80 1010.9
20260505022112 75 175 8.0 11.0 0.00 0.00 0.00 80 1011.0
20260505021651 75 186 9.0 12.0 0.00 0.00 0.00 80 1010.9
20260505021145 76 178 9.0 12.0 0.00 0.00 0.00 80 1010.7
20260505020646 76 172 7.0 13.0 0.00 0.00 0.00 80 1010.7
20260505020139 76 170 9.0 13.0 0.00 0.00 0.00 79 1010.7
20260505015636 76 179 8.0 13.0 0.00 0.00 0.00 80 1010.6
20260505015208 76 172 9.0 11.0 0.00 0.00 0.00 80 1010.6
20260505014623 76 172 8.0 12.0 0.00 0.00 0.00 79 1010.6
20260505014125 76 172 9.0 12.0 0.00 0.00 0.00 79 1010.6
20260505013626 76 168 8.0 13.0 0.00 0.00 0.00 78 1010.7
20260505013129 76 186 10.0 13.0 0.00 0.00 0.00 78 1010.7
20260505012627 76 184 9.0 12.0 0.00 0.00 0.00 78 1010.7
20260505012129 76 191 9.0 13.0 0.00 0.00 0.00 78 1010.8
20260505011632 76 187 10.0 15.0 0.00 0.00 0.00 77 1010.5
20260505011123 77 186 11.0 15.0 0.00 0.00 0.00 77 1010.4
20260505010642 77 172 10.0 19.0 0.00 0.00 0.00 77 1010.2
20260505010139 77 176 13.0 19.0 0.00 0.00 0.00 76 1010.4
20260505005624 77 169 14.0 16.0 0.00 0.00 0.00 75 1010.2
20260505005114 77 178 12.0 20.0 0.00 0.00 0.00 75 1010.3
20260505004627 77 172 14.0 18.0 0.00 0.00 0.00 74 1010.2
20260505004125 78 178 14.0 19.0 0.00 0.00 0.00 74 1010.3
20260505003727 78 175 14.0 19.0 0.00 0.00 0.00 73 1010.1